Flag for United Kingdom Weather past 2 weeks in Hinckley, England, United Kingdom

Now
51 °F

Cool.


Feels Like: 46 °F
Forecast: 49 / 53 °F
Wind: 15 mph from Southwest

Location: Church Lawford

Current Time: Dec 23, 2014 at 12:31:26 AM

Latest Report: Dec 22, 2014 at 11:00 PM


Visibility: 13 mi

Pressure: 29.96 "Hg

Humidity: 86%

Dew point: 47 °F

Location of HinckleyLocation

Historic Weather in Hinckley — Graph

°F

Hinckley temperature yesterday

Maximum temperature yesterday: 54 °F (at 11:00 AM)
Minimum temperature yesterday: 51 °F (at 8:00 PM)
Average temperature yesterday: 53 °F

Past Weeks' High & Low Weather Summary

 TemperatureHumidityPressure
High56 °F (Dec 18, 1:00 PM)100% (Dec 13, 10:00 AM)30.42 "Hg (Dec 13, 10:00 AM)
Low29 °F (Dec 13, 7:00 AM)64% (Dec 10, 3:00 PM)29.15 "Hg (Dec 12, 4:00 AM)
Average43 °F88%29.90 "Hg
* Reported Dec 7 11:00 PM — Dec 22 11:00 PM, Hinckley, Weather by CustomWeather, © 2014

Note: Actual official high and low records may vary slightly from our data, if they occured in-between our weather recording intervals... More about our weather records

Advertising

Hinckley weather history for previous 24 hours

 ConditionsComfort  
Time TempWeatherWind HumidityBarometerVisibility
11:00 PM
Dec 22
51 °FCool.15 mph86%29.96 "Hg12 mi
10:00 PM51 °FCool.16 mph88%29.96 "Hg11 mi
9:00 PM51 °FCool.10 mph87%29.96 "Hg11 mi
8:00 PM51 °FCool.12 mph84%29.96 "Hg9 mi
7:00 PM52 °FCool.13 mph80%29.95 "Hg13 mi
3:00 PM53 °FCool.17 mph85%29.93 "Hg18 mi
2:00 PM53 °FCool.17 mph86%29.94 "Hg16 mi
1:00 PM53 °FCool.14 mph85%29.94 "Hg22 mi
12:00 PM54 °FCool.14 mph84%29.95 "Hg12 mi
11:00 AM54 °FCool.13 mph83%29.97 "Hg18 mi
10:00 AM53 °FCool.17 mph80%29.96 "Hg19 mi
9:00 AM53 °FCool.15 mph79%29.95 "Hg15 mi
7:00 AM53 °FCool.15 mph80%29.94 "Hg31 mi
6:00 AM53 °FCool.14 mph84%29.95 "Hg31 mi
5:00 AM53 °FCool.12 mph88%29.96 "Hg28 mi
4:00 AM52 °FCool.15 mph90%29.96 "Hg31 mi
3:00 AM52 °FCool.15 mph91%29.98 "Hg31 mi
2:00 AM52 °FCool.12 mph91%30.01 "Hg4 mi
1:00 AM52 °FCool.14 mph91%30.02 "Hg31 mi
12:00 AM52 °FCool.14 mph92%30.03 "Hg22 mi
Weather by CustomWeather, © 2014

See weather overviewHow to use our weather pages